Location: Estes Park
(40.3770°N, 105.5210°W)
Time: 03:09:40
(UTC-06:00)

Vanguard 2 - Visible Passes

Search period start: 18 June 2018 00:00
Search period end: 28 June 2018 00:00
Orbit: 553 x 2939 km, 32.9° (Epoch: 17 June)

Date Brightness Start Highest point End Pass type
(mag) Time Alt. Az. Time Alt. Az. Time Alt. Az.
19 Jun 9.8 03:25:00 12° SSE 03:25:06 12° SSE 03:27:06 10° SE visible
20 Jun 9.4 03:41:43 16° S 03:43:08 17° SSE 03:46:30 10° ESE visible
21 Jun 9.1 03:58:24 17° SSW 04:01:09 23° SSE 04:05:05 10° ESE visible
22 Jun 10.2 02:13:39 11° SE 02:13:39 11° SE 02:14:08 10° SE visible
22 Jun 8.8 04:15:02 16° SW 04:19:10 28° S 04:23:21 10° ESE visible
23 Jun 9.7 02:30:14 19° SE 02:30:14 19° SE 02:33:14 10° ESE visible
23 Jun 8.5 04:31:37 12° SW 04:37:10 33° S 04:41:28 10° ESE visible
24 Jun 9.3 02:46:45 26° SSE 02:46:45 26° SSE 02:51:47 10° ESE visible
24 Jun 8.3 04:48:52 10° WSW 04:55:09 37° S 04:59:29 10° ESE visible
25 Jun 9.1 03:03:11 30° S 03:04:42 33° SSE 03:10:03 10° ESE visible
26 Jun 10.2 01:18:11 15° ESE 01:18:11 15° ESE 01:19:43 10° ESE visible
26 Jun 8.8 03:19:33 28° SW 03:22:45 38° S 03:28:10 10° ESE visible
27 Jun 9.8 01:34:27 25° SE 01:34:27 25° SE 01:38:17 10° ESE visible
27 Jun 8.6 03:35:48 22° SW 03:40:46 43° S 03:46:12 10° ESE visible
27 Jun11.023:49:13E23:49:13E23:25:42SSWvisible
